Location: Br�znic
(45.9167°N, 22.6500°E)
Time: 12:46:12
(UTC+00:00)

Gbstr 26 Del rocket - Pass Details

Date: 03 March 2021
Orbit: 492 x 1264 km, 51.8° (Epoch: 11 April)

Event Time Altitude Azimuth Distance (km) Brightness Sun altitude
Rises 18:10:00 0° 284° (WNW) 2,848 8.1 -20.0°
Reaches altitude 10° 18:12:11 10° 291° (WNW) 2,036 6.9 -20.4°
Maximum altitude 18:16:40 43° 4° (N) 1,022 4.2 -21.2°
Enters shadow 18:18:33 32° 51° (NE) 1,323 4.4 -21.5°
